• în România
  • Lista ţărilor
  • Pe 7 zile
  • Temperatura apei
  • Hartă satelitară
  • Meteo pe hartă
  • Widget-uri
  • user-avatar
    Intrare

    Meteo pe oră la Istria

    Astăzi, 19 Septembrie, Miercuri

    Timp Temperatura Precipitaţii Vânt Presiune Umiditate
    00:00 +21°C° 0 mm 1 m/s 756 mmHg 79%
    01:00 +21°C° 0 mm 1 m/s 756 mmHg 79%
    02:00 +21°C° 0.2 mm 1 m/s 756 mmHg 78%
    03:00 +21°C° 0.2 mm 1 m/s 756 mmHg 78%
    04:00 +21°C° 0.2 mm 1 m/s 756 mmHg 77%
    05:00 +22°C° 0 mm 1 m/s 756 mmHg 75%
    06:00 +22°C° 0 mm 1 m/s 756 mmHg 73%
    07:00 +23°C° 0 mm 1 m/s 756 mmHg 72%
    08:00 +25°C° 0 mm 1 m/s 756 mmHg 64%
    09:00 +27°C° 0 mm 1 m/s 756 mmHg 56%
    10:00 +30°C° 0 mm 1 m/s 756 mmHg 49%
    11:00 +30°C° 0 mm 1 m/s 756 mmHg 47%
    12:00 +30°C° 0 mm 1 m/s 756 mmHg 46%
    13:00 +31°C° 0 mm 1 m/s 756 mmHg 45%
    14:00 +30°C° 0 mm 1 m/s 756 mmHg 49%
    15:00 +30°C° 0 mm 1 m/s 755 mmHg 53%
    16:00 +29°C° 0 mm 1 m/s 755 mmHg 57%
    17:00 +27°C° 0 mm 2 m/s 755 mmHg 63%
    18:00 +25°C° 0 mm 2 m/s 755 mmHg 70%
    19:00 +24°C° 0 mm 2 m/s 756 mmHg 77%
    20:00 +24°C° 0 mm 2 m/s 756 mmHg 77%
    21:00 +23°C° 0 mm 2 m/s 756 mmHg 77%
    22:00 +23°C° 0 mm 2 m/s 756 mmHg 78%
    23:00 +23°C° 0 mm 2 m/s 756 mmHg 77%

    Mâine, 20 Septembrie, Joi

    Timp Temperatura Precipitaţii Vânt Presiune Umiditate
    00:00 +23°C° 0 mm 2 m/s 756 mmHg 77%
    01:00 +22°C° 0 mm 3 m/s 756 mmHg 76%
    02:00 +22°C° 0 mm 3 m/s 756 mmHg 76%
    03:00 +21°C° 0 mm 3 m/s 756 mmHg 76%
    04:00 +21°C° 0 mm 3 m/s 756 mmHg 76%
    05:00 +22°C° 0 mm 3 m/s 756 mmHg 75%
    06:00 +22°C° 0 mm 3 m/s 756 mmHg 74%
    07:00 +22°C° 0 mm 3 m/s 756 mmHg 73%
    08:00 +25°C° 0 mm 3 m/s 756 mmHg 65%
    09:00 +27°C° 0 mm 3 m/s 756 mmHg 57%
    10:00 +29°C° 0 mm 3 m/s 756 mmHg 49%
    11:00 +30°C° 0 mm 2 m/s 756 mmHg 47%
    12:00 +30°C° 0 mm 2 m/s 756 mmHg 45%
    13:00 +31°C° 0 mm 2 m/s 756 mmHg 42%
    14:00 +30°C° 0 mm 2 m/s 755 mmHg 45%
    15:00 +30°C° 0 mm 2 m/s 755 mmHg 48%
    16:00 +29°C° 0 mm 1 m/s 755 mmHg 51%
    17:00 +28°C° 0 mm 1 m/s 755 mmHg 57%
    18:00 +26°C° 0 mm 1 m/s 755 mmHg 64%
    19:00 +24°C° 0 mm 1 m/s 755 mmHg 71%
    20:00 +24°C° 0 mm 1 m/s 755 mmHg 72%
    21:00 +23°C° 0 mm 1 m/s 755 mmHg 72%
    22:00 +23°C° 0 mm 1 m/s 756 mmHg 73%
    23:00 +23°C° 0 mm 1 m/s 755 mmHg 74%

    Poimâine, 21 Septembrie, Vineri

    Timp Temperatura Precipitaţii Vânt Presiune Umiditate
    00:00 +22°C° 0 mm 1 m/s 755 mmHg 74%
    01:00 +22°C° 0 mm 1 m/s 755 mmHg 74%
    02:00 +22°C° 0 mm 1 m/s 755 mmHg 75%
    03:00 +22°C° 0 mm 1 m/s 755 mmHg 75%
    04:00 +22°C° 0 mm 1 m/s 754 mmHg 75%
    05:00 +22°C° 0 mm 1 m/s 754 mmHg 74%
    06:00 +22°C° 0 mm 1 m/s 755 mmHg 74%
    07:00 +23°C° 0 mm 1 m/s 755 mmHg 73%
    08:00 +25°C° 0 mm 1 m/s 755 mmHg 65%
    09:00 +27°C° 0 mm 1 m/s 755 mmHg 57%
    10:00 +29°C° 0 mm 1 m/s 755 mmHg 49%
    11:00 +29°C° 0 mm 1 m/s 755 mmHg 48%
    12:00 +30°C° 0 mm 1 m/s 754 mmHg 48%
    13:00 +30°C° 0 mm 2 m/s 754 mmHg 48%
    14:00 +29°C° 0 mm 2 m/s 754 mmHg 51%
    15:00 +29°C° 0 mm 2 m/s 753 mmHg 55%
    16:00 +28°C° 0 mm 2 m/s 753 mmHg 59%
    17:00 +26°C° 0 mm 2 m/s 753 mmHg 67%
    18:00 +25°C° 0 mm 2 m/s 753 mmHg 75%
    19:00 +23°C° 0 mm 2 m/s 754 mmHg 84%
    20:00 +23°C° 0 mm 2 m/s 754 mmHg 85%
    21:00 +21°C° 0 mm 2 m/s 754 mmHg 86%
    22:00 +21°C° 0 mm 2 m/s 755 mmHg 88%
    23:00 +21°C° 0 mm 2 m/s 754 mmHg 87%

    22 Septembrie, Sâmbătă

    Timp Temperatura Precipitaţii Vânt Presiune Umiditate
    00:00 +21°C° 0 mm 2 m/s 754 mmHg 87%
    01:00 +20°C° 0 mm 2 m/s 754 mmHg 86%
    02:00 +20°C° 0 mm 3 m/s 754 mmHg 86%
    03:00 +20°C° 0 mm 3 m/s 754 mmHg 86%
    04:00 +20°C° 0 mm 3 m/s 754 mmHg 86%
    05:00 +21°C° 0 mm 3 m/s 754 mmHg 84%
    06:00 +21°C° 0 mm 3 m/s 754 mmHg 83%
    07:00 +21°C° 0 mm 3 m/s 754 mmHg 82%
    08:00 +24°C° 0.1 mm 3 m/s 754 mmHg 77%
    09:00 +25°C° 0.1 mm 3 m/s 755 mmHg 72%
    10:00 +27°C° 0.1 mm 3 m/s 755 mmHg 68%
    11:00 +27°C° 0.4 mm 3 m/s 755 mmHg 71%
    12:00 +27°C° 0.4 mm 3 m/s 754 mmHg 75%
    13:00 +26°C° 0.4 mm 3 m/s 754 mmHg 78%
    14:00 +26°C° 0.4 mm 3 m/s 754 mmHg 79%
    15:00 +25°C° 0.4 mm 3 m/s 754 mmHg 79%
    16:00 +25°C° 0.4 mm 3 m/s 755 mmHg 79%
    17:00 +22°C° 0.1 mm 5 m/s 755 mmHg 78%
    18:00 +20°C° 0.1 mm 6 m/s 755 mmHg 77%
    19:00 +18°C° 0.1 mm 7 m/s 756 mmHg 76%
    20:00 +17°C° 0 mm 7 m/s 756 mmHg 75%
    21:00 +17°C° 0 mm 8 m/s 757 mmHg 74%
    22:00 +16°C° 0 mm 8 m/s 757 mmHg 73%
    23:00 +16°C° 0.1 mm 8 m/s 757 mmHg 75%

    23 Septembrie, Duminică

    Timp Temperatura Precipitaţii Vânt Presiune Umiditate
    00:00 +15°C° 0.1 mm 8 m/s 758 mmHg 78%
    01:00 +15°C° 0.1 mm 8 m/s 758 mmHg 80%
    02:00 +15°C° 0.1 mm 8 m/s 758 mmHg 79%
    03:00 +15°C° 0.1 mm 7 m/s 758 mmHg 78%
    04:00 +15°C° 0.1 mm 7 m/s 758 mmHg 77%
    05:00 +15°C° 0 mm 7 m/s 758 mmHg 76%
    06:00 +15°C° 0 mm 7 m/s 758 mmHg 75%
    07:00 +15°C° 0 mm 7 m/s 758 mmHg 75%
    08:00 +16°C° 0 mm 6 m/s 758 mmHg 70%
    09:00 +19°C° 0 mm 5 m/s 758 mmHg 64%
    10:00 +21°C° 0 mm 4 m/s 758 mmHg 59%
    11:00 +22°C° 0 mm 3 m/s 758 mmHg 58%
    12:00 +24°C° 0 mm 2 m/s 758 mmHg 57%
    13:00 +25°C° 0 mm 1 m/s 757 mmHg 57%
    14:00 +25°C° 0 mm 1 m/s 757 mmHg 58%
    15:00 +25°C° 0 mm 1 m/s 756 mmHg 60%
    16:00 +25°C° 0 mm 1 m/s 756 mmHg 62%
    17:00 +23°C° 0 mm 1 m/s 755 mmHg 69%
    18:00 +22°C° 0 mm 1 m/s 755 mmHg 75%
    19:00 +21°C° 0 mm 1 m/s 755 mmHg 81%
    20:00 +21°C° 0 mm 1 m/s 754 mmHg 82%
    21:00 +20°C° 0 mm 2 m/s 754 mmHg 82%
    22:00 +21°C° 0 mm 2 m/s 754 mmHg 82%
    23:00 +21°C° 0.1 mm 4 m/s 753 mmHg 85%

    24 Septembrie, Luni

    Timp Temperatura Precipitaţii Vânt Presiune Umiditate
    00:00 +21°C° 0.1 mm 5 m/s 752 mmHg 88%
    01:00 +22°C° 0.1 mm 6 m/s 751 mmHg 91%
    02:00 +22°C° 0.3 mm 7 m/s 750 mmHg 90%
    03:00 +22°C° 0.3 mm 8 m/s 749 mmHg 90%
    04:00 +22°C° 0.3 mm 9 m/s 748 mmHg 89%
    05:00 +23°C° 0.1 mm 9 m/s 748 mmHg 88%
    06:00 +23°C° 0.1 mm 8 m/s 748 mmHg 88%
    07:00 +23°C° 0.1 mm 8 m/s 747 mmHg 87%
    08:00 +23°C° 0.1 mm 7 m/s 748 mmHg 85%
    09:00 +24°C° 0.1 mm 7 m/s 748 mmHg 83%
    10:00 +24°C° 0.1 mm 6 m/s 749 mmHg 82%
    11:00 +25°C° 0.1 mm 5 m/s 749 mmHg 81%
    12:00 +25°C° 0.1 mm 4 m/s 750 mmHg 80%
    13:00 +25°C° 0.1 mm 3 m/s 750 mmHg 79%
    14:00 +26°C° 0.1 mm 3 m/s 751 mmHg 77%
    15:00 +26°C° 0.1 mm 3 m/s 751 mmHg 75%
    16:00 +26°C° 0.1 mm 3 m/s 751 mmHg 73%
    17:00 +23°C° 0 mm 6 m/s 752 mmHg 67%
    18:00 +22°C° 0 mm 8 m/s 753 mmHg 61%
    19:00 +19°C° 0 mm 11 m/s 754 mmHg 55%
    20:00 +19°C° 0 mm 11 m/s 755 mmHg 54%
    21:00 +18°C° 0 mm 12 m/s 756 mmHg 53%
    22:00 +17°C° 0 mm 13 m/s 757 mmHg 53%
    23:00 +17°C° 0 mm 11 m/s 758 mmHg 54%
    Arată mai mult